Total_Precipitation_Accumulation
1.18 1.25 1.32 1.32 1.35 1.42 1.50 1.62 1.74 1.68 1.52 1.31 1.29 1.24 1.20 1.18 1.27 1.13 1.15 1.12 1.07 1.14 1.15 1.19 1.26 1.41 1.46 1.36 1.25 1.16 1.13 1.19 1.28 1.39 1.60 1.84 2.07 2.27
1.04 1.03 1.04 1.03 1.08 1.13 1.25 1.38 1.50 1.58 1.52 1.26 1.21 1.29 1.27 1.16 1.33 1.22 1.18 1.15 1.11 1.32 1.47 1.41 1.39 1.56 1.69 1.64 1.45 1.31 1.24 1.23 1.25 1.26 1.34 1.52 1.73 1.93
0.83 0.84 0.88 0.91 0.97 0.98 1.02 1.17 1.37 1.52 1.56 1.30 1.15 1.22 1.35 1.31 1.35 1.30 1.21 1.16 1.24 1.62 1.83 2.03 1.79 1.69 1.79 1.75 1.63 1.43 1.29 1.24 1.29 1.35 1.42 1.49 1.54 1.62
0.78 0.82 0.83 0.85 0.85 0.91 0.98 1.05 1.20 1.38 1.54 1.48 1.28 1.29 1.36 1.37 1.42 1.42 1.26 1.11 1.17 1.62 1.91 2.23 2.20 1.96 1.97 1.81 1.63 1.42 1.29 1.23 1.26 1.32 1.37 1.41 1.46 1.52
0.71 0.77 0.81 0.91 0.90 0.91 0.97 0.99 1.08 1.20 1.45 1.53 1.41 1.39 1.46 1.51 1.62 1.52 1.36 1.31 1.10 1.36 1.78 2.13 2.30 2.34 2.41 2.26 1.94 1.58 1.34 1.21 1.14 1.15 1.21 1.27 1.29 1.27
0.67 0.73 0.76 0.87 0.94 0.98 0.98 0.99 1.03 1.16 1.33 1.51 1.50 1.49 1.55 1.63 1.68 1.65 1.50 1.35 1.22 1.20 1.65 2.11 2.45 2.50 2.66 2.74 2.44 1.95 1.54 1.28 1.13 1.05 0.99 0.98 1.02 1.02
0.64 0.65 0.68 0.78 0.86 0.85 0.80 0.83 0.98 1.19 1.29 1.46 1.53 1.51 1.51 1.62 1.61 1.44 1.38 1.31 1.18 1.13 1.35 1.74 2.42 2.75 2.81 2.86 2.74 2.23 1.75 1.42 1.20 1.06 0.99 0.94 0.94 0.95
0.62 0.63 0.61 0.61 0.62 0.64 0.70 0.75 0.86 1.11 1.44 1.64 1.61 1.54 1.42 1.40 1.43 1.38 1.40 1.42 1.36 1.09 1.07 1.37 1.94 2.69 2.94 2.89 2.79 2.20 1.66 1.35 1.20 1.09 1.04 1.01 0.99 0.99
0.67 0.67 0.56 0.49 0.58 0.64 0.69 0.74 0.87 1.03 1.31 1.65 1.73 1.52 1.44 1.40 1.43 1.43 1.48 1.55 1.43 1.11 1.11 1.38 1.74 2.40 2.60 2.59 2.48 1.90 1.47 1.22 1.08 1.02 1.00 0.98 0.94 0.96
0.62 0.66 0.68 0.64 0.61 0.65 0.71 0.81 0.95 1.09 1.19 1.29 1.59 1.42 1.20 1.20 1.28 1.33 1.42 1.46 1.37 1.19 1.18 1.46 1.74 2.18 2.19 2.23 2.15 1.70 1.36 1.16 1.01 0.91 0.89 0.89 0.86 0.88
0.55 0.55 0.56 0.58 0.63 0.72 0.87 1.09 1.22 1.34 1.28 1.41 1.57 1.52 1.36 1.26 1.16 1.22 1.42 1.48 1.44 1.28 1.22 1.44 1.66 1.79 1.90 1.96 1.76 1.59 1.32 1.15 1.02 0.91 0.84 0.80 0.77 0.81
0.60 0.60 0.54 0.51 0.62 0.77 1.01 1.30 1.44 1.51 1.38 1.48 1.72 1.77 1.59 1.55 1.50 1.39 1.50 1.54 1.49 1.44 1.21 1.28 1.47 1.50 1.73 1.71 1.55 1.43 1.35 1.33 1.18 1.03 0.92 0.78 0.68 0.67
0.58 0.66 0.65 0.57 0.64 0.84 1.06 1.25 1.40 1.44 1.47 1.54 1.57 1.61 1.67 1.69 1.64 1.56 1.52 1.51 1.49 1.42 1.13 1.21 1.41 1.45 1.55 1.59 1.56 1.53 1.47 1.44 1.31 1.24 1.19 1.02 0.82 0.72
0.59 0.63 0.66 0.63 0.67 0.89 1.06 1.30 1.51 1.58 1.56 1.58 1.45 1.38 1.34 1.35 1.41 1.37 1.31 1.27 1.24 1.19 1.07 1.14 1.40 1.55 1.48 1.41 1.58 1.61 1.63 1.67 1.58 1.46 1.39 1.29 1.12 1.02
0.46 0.53 0.59 0.64 0.79 1.10 1.27 1.43 1.60 1.70 1.73 1.59 1.40 1.30 1.16 1.08 1.07 1.12 1.13 1.10 1.05 0.95 0.90 1.02 1.28 1.43 1.45 1.42 1.55 1.62 1.72 1.88 1.81 1.76 1.62 1.46 1.35 1.20
0.44 0.57 0.68 0.76 0.96 1.28 1.49 1.67 1.73 1.63 1.47 1.39 1.30 1.21 1.07 1.00 1.00 0.93 0.93 0.97 1.00 1.00 0.91 0.92 1.12 1.31 1.42 1.35 1.40 1.51 1.61 1.95 1.93 1.72 1.63 1.62 1.52 1.36
0.39 0.59 0.77 0.93 1.14 1.37 1.54 1.60 1.58 1.48 1.37 1.18 1.10 1.13 1.10 1.01 0.96 0.86 0.82 0.84 0.94 1.00 0.98 0.94 0.98 1.08 1.14 1.18 1.32 1.43 1.52 1.70 1.76 1.57 1.45 1.52 1.57 1.45
0.42 0.63 0.77 0.88 1.08 1.31 1.45 1.42 1.31 1.23 1.14 1.04 0.98 0.95 0.95 0.91 0.88 0.81 0.74 0.74 0.83 0.82 0.79 0.78 0.84 0.93 0.94 0.97 1.15 1.29 1.34 1.46 1.46 1.31 1.16 1.23 1.46 1.47
0.44 0.63 0.75 0.85 1.04 1.18 1.24 1.22 1.18 1.08 1.00 0.95 0.91 0.84 0.77 0.75 0.70 0.66 0.65 0.69 0.68 0.64 0.60 0.56 0.62 0.76 0.87 1.03 1.07 1.10 1.17 1.25 1.21 1.11 1.03 1.08 1.30 1.42
0.49 0.65 0.77 0.84 0.92 0.98 1.05 1.10 1.10 1.01 0.92 0.88 0.89 0.83 0.74 0.68 0.61 0.59 0.59 0.56 0.56 0.55 0.53 0.48 0.44 0.52 0.66 0.79 0.97 1.02 0.96 0.96 0.98 1.01 0.96 0.99 1.14 1.22
0.55 0.66 0.73 0.79 0.81 0.82 0.86 0.92 0.94 0.91 0.84 0.80 0.79 0.78 0.71 0.64 0.55 0.49 0.45 0.36 0.40 0.46 0.47 0.42 0.36 0.35 0.42 0.53 0.69 0.78 0.77 0.82 0.77 0.75 0.74 0.78 0.84 0.85
0.54 0.61 0.66 0.70 0.69 0.68 0.69 0.73 0.76 0.76 0.73 0.70 0.69 0.68 0.61 0.53 0.48 0.43 0.40 0.38 0.40 0.37 0.33 0.30 0.29 0.31 0.36 0.48 0.60 0.65 0.62 0.58 0.59 0.58 0.57 0.56 0.59 0.73
0.49 0.52 0.54 0.56 0.55 0.55 0.55 0.57 0.61 0.64 0.65 0.66 0.64 0.59 0.51 0.46 0.41 0.37 0.33 0.30 0.29 0.28 0.28 0.29 0.28 0.29 0.29 0.33 0.40 0.45 0.47 0.48 0.49 0.52 0.53 0.58 0.59 0.66